Orbital Elements at Epoch 2459000.5 (2020-May-31.0) TDB
Reference: JPL 14 (heliocentric ecliptic J2000)
Element | Value | Uncertainty (1-sigma) | Units |
e | .05959454066958822 | 5.1129e-08 | |
a | 3.023389165091054 | 3.7827e-08 | au |
q | 2.843211676532043 | 1.4948e-07 | au |
i | 9.546185963841236 | 7.5439e-06 | deg |
node | 321.0331228188442 | 3.039e-05 | deg |
peri | 290.4502664231716 | 7.2083e-05 | deg |
M | 167.1899567522312 | 6.2388e-05 | deg |
tp | 2458108.741638653913 (2017-Dec-21.24163865) | 0.00033593 | TDB |
period | 1920.169227391747 5.26 | 3.6036e-05 9.866e-08 | d yr |
n | .1874834753439958 | 3.5185e-09 | deg/d |
Q | 3.203566653650065 | 4.0081e-08 | au |
|
| | Orbit Determination Parameters
Additional Information
|